FENGYUN 1C DEB, 30949

Orbit data source: Space-Track

FENGYUN 1C DEB, 30949 is space debris in SSO originally from a launch on Mon, 10 May 1999 UTC launched from the Taiyaun Space Center, China (TSC). Fengyun 1C debris stems from the Chinese weather satellite Fengyun-1C, which was intentionally destroyed by a Chinese anti-satellite missile in 2007. This event dramatically increased the amount of space debris, with thousands of trackable fragments posing hazards to satellites and human spaceflight. The Fengyun 1C debris cloud has become a focal point in discussions about space sustainability and the need for international regulations to prevent the creation of new debris.

Loading next visibility...
Identifier
30949, 1999-025BAP
Orbit
SSO
Country
Flag of CNCN / PRC
Related business
Manufacturer
Unknown
Mission
Spacecraft
Bus & Motor
Unknown
Mass
Unknown
Launch date (UTC)
1999-05-10 (27 years ago)
Launch vehicle
Unknown
Launch site
Taiyaun Space Center, China (TSC)
Object type
Payload
Rocket body
Debris
Shape & HBR
Unknown shape, 0.1 m
Radar Cross Section
Medium (>0.1 m² and <1 m²)

Expand to show TLE details & history
Last TLE update: 11 hours ago

TLE from 11 hours ago
0 FENGYUN 1C DEB
1 30949U 99025BAP 26169.45760662  .00000244  00000-0  14024-3 0  9994
2 30949  98.7067 164.0155 0117753 133.1535  19.3750 14.14217250991697
Epoch: 2026-06-18T10:58Z
TLE epoch observation values (Epoch: 2026-06-18T10:58:57.211Z)
Latitude
26.71965°
Longitude
-83.02602°
Altitude
768.081 km
Speed
7.514 km/s
True Right ascension
23h 13m 39s
True Declination
26° 34' 55"
Sunlit
Object was in daylight at epoch
Visualization orbit readout
Latitude
Unknown
Longitude
Unknown
Altitude
Unknown
Speed
Unknown
Apparent Right ascension
Unknown
Apparent Declination
Unknown
Sunlit
N/A
Visualization observer readout
Local Sidereal Time
08:53:16
Azimuth
Unknown
Elevation
Unknown
Doppler factor
Unknown
Orbital elements
Apogee altitude
927.163 km
Perigee altitude
757.121 km
Semi-major axis
7,220.279 km
Eccentricity
0.01178
Inclination
98.7067°
RAAN
164.0155°
Arg. of periapsis
133.1535°
True anomaly
19.82894°
Mean anomaly
19.375°
Eccentric anomaly
19.60134°
Mean motion
3.53763 °/min
Orbital period
101.76 mins
BSTAR
0.00014024
Loading maneuver chart data...
Computing Atmospheric mass density...
Loading historical data...
Loading historical data...
Loading historical data...
Loading historical data...
Loading historical data...
Loading historical data...
Loading historical data...

Documentation

Showing up to 5 results
|